sat.trackr.live / text

‹ back to catalog

GEESAT-4 01

NORAD 65119 · 2025-170A

PAYLOAD ACTIVE UNKNOWN

§ Identity

Operator
Country
PRC
Launch date
2025-08-08
Launch site
YSLA
Launch vehicle
Mass (kg)
RCS (m²)

External: N2YO · Heavens-Above · Gunter

§ Orbital elements

Epoch: 2026-09-21T22:03:05.475168Z

Period
97.02 min
Inclination
49.9877°
Eccentricity
0.0010429
Mean motion
14.84273648 rev/d
Perigee alt
608.6 km
Apogee alt
623.2 km
Semi-major
6,994.0 km
B*
1.4187e-4
RAAN
85.7497°
Arg perigee
63.6324°
Mean anomaly
296.5684°
Rev number
6,080

§ Raw data

GEESAT-4 011 65119U 25170A   26264.91881337  .00000973  00000+0  14187-3 0  99992 65119  49.9877  85.7497 0010429  63.6324 296.5684 14.84273648 60809

JSON: /api/v1/satellites/65119 · /tle

For live sub-satellite position, see the globe view (requires WebGL).

§ Visibility from observer

Set your observer location to see the next 7 days of passes ≥ 10°. The values pass through the URL so the page stays shareable.

No JS? Fill the form by hand. The geolocation button needs JavaScript.